| time (UTC) | temp C | wind direction | speed KPH | gust KPH | rain 1hr cm | rain 24hr cm | rain mn cm | humidity % | barometer mb |
| 20260510154333 | 20 | 283 | 3.2 | 3.2 | 0.00 | 0.00 | 0.00 | 65 | 1012.6 |
| 20260510153828 | 20 | 265 | 1.6 | 1.6 | 0.00 | 0.00 | 0.00 | 66 | 1012.9 |
| 20260510153324 | 20 | 284 | 1.6 | 1.6 | 0.00 | 0.00 | 0.00 | 65 | 1012.6 |
| 20260510152821 | 20 | 53 | 0.0 | 0.0 | 0.00 | 0.00 | 0.00 | 64 | 1012.6 |
| 20260510152318 | 20 | 56 | 3.2 | 3.2 | 0.00 | 0.00 | 0.00 | 64 | 1012.6 |
| 20260510151814 | 20 | 52 | 0.0 | 1.6 | 0.00 | 0.00 | 0.00 | 65 | 1012.5 |
| 20260510151313 | 19 | 57 | 1.6 | 1.6 | 0.00 | 0.00 | 0.00 | 66 | 1012.6 |
| 20260510150808 | 18 | 155 | 0.0 | 0.0 | 0.00 | 0.00 | 0.00 | 69 | 1012.6 |
| 20260510150304 | 18 | 264 | 3.2 | 3.2 | 0.00 | 0.00 | 0.00 | 69 | 1012.4 |
| 20260510145800 | 18 | 312 | 0.0 | 0.0 | 0.00 | 0.00 | 0.00 | 71 | 1012.3 |
| 20260510145257 | 18 | 17 | 0.0 | 0.0 | 0.00 | 0.00 | 0.00 | 70 | 1012.4 |
| 20260510144753 | 17 | 31 | 0.0 | 0.0 | 0.00 | 0.00 | 0.00 | 70 | 1012.4 |
| 20260510144249 | 17 | 29 | 0.0 | 0.0 | 0.00 | 0.00 | 0.00 | 70 | 1012.5 |
| 20260510143744 | 17 | 54 | 1.6 | 3.2 | 0.00 | 0.00 | 0.00 | 71 | 1012.5 |
| 20260510143240 | 17 | 22 | 0.0 | 1.6 | 0.00 | 0.00 | 0.00 | 71 | 1012.2 |
| 20260510142737 | 17 | 78 | 0.0 | 0.0 | 0.00 | 0.00 | 0.00 | 72 | 1012.2 |
| 20260510142234 | 17 | 14 | 0.0 | 1.6 | 0.00 | 0.00 | 0.00 | 72 | 1012.2 |
| 20260510141731 | 17 | 264 | 3.2 | 3.2 | 0.00 | 0.00 | 0.00 | 73 | 1012.2 |
| 20260510141229 | 16 | 266 | 0.0 | 0.0 | 0.00 | 0.00 | 0.00 | 74 | 1012.3 |
| 20260510140725 | 16 | 69 | 0.0 | 1.6 | 0.00 | 0.00 | 0.00 | 74 | 1012.0 |
| 20260510140220 | 16 | 358 | 0.0 | 0.0 | 0.00 | 0.00 | 0.00 | 76 | 1011.9 |
| 20260510135714 | 16 | 328 | 0.0 | 1.6 | 0.00 | 0.00 | 0.00 | 78 | 1011.8 |
| 20260510135211 | 15 | 324 | 0.0 | 1.6 | 0.00 | 0.00 | 0.00 | 80 | 1011.8 |
| 20260510134708 | 15 | 332 | 0.0 | 0.0 | 0.00 | 0.00 | 0.00 | 81 | 1011.7 |
| 20260510134206 | 15 | 7 | 0.0 | 0.0 | 0.00 | 0.00 | 0.00 | 81 | 1011.5 |
| 20260510133701 | 15 | 7 | 0.0 | 0.0 | 0.00 | 0.00 | 0.00 | 82 | 1011.5 |
| 20260510133157 | 15 | 32 | 0.0 | 0.0 | 0.00 | 0.00 | 0.00 | 82 | 1011.6 |
| 20260510132653 | 15 | 32 | 0.0 | 0.0 | 0.00 | 0.00 | 0.00 | 82 | 1011.5 |
| 20260510132150 | 15 | 34 | 0.0 | 0.0 | 0.00 | 0.00 | 0.00 | 82 | 1011.6 |
| 20260510131648 | 15 | 34 | 0.0 | 0.0 | 0.00 | 0.00 | 0.00 | 82 | 1011.4 |
| 20260510131145 | 15 | 34 | 0.0 | 0.0 | 0.00 | 0.00 | 0.00 | 82 | 1011.2 |
| 20260510130641 | 15 | 34 | 0.0 | 0.0 | 0.00 | 0.00 | 0.00 | 81 | 1011.4 |
| 20260510130139 | 15 | 34 | 0.0 | 0.0 | 0.00 | 0.00 | 0.00 | 81 | 1011.4 |
| 20260510125635 | 15 | 34 | 0.0 | 0.0 | 0.00 | 0.00 | 0.00 | 81 | 1011.3 |
| 20260510125131 | 15 | 34 | 0.0 | 0.0 | 0.00 | 0.00 | 0.00 | 80 | 1011.1 |
| 20260510124629 | 15 | 34 | 0.0 | 0.0 | 0.00 | 0.00 | 0.00 | 80 | 1011.3 |
| 20260510124125 | 15 | 34 | 0.0 | 0.0 | 0.00 | 0.00 | 0.00 | 80 | 1011.3 |
| 20260510123621 | 15 | 35 | 0.0 | 0.0 | 0.00 | 0.00 | 0.00 | 80 | 1011.2 |
| 20260510123117 | 15 | 35 | 0.0 | 0.0 | 0.00 | 0.00 | 0.00 | 79 | 1011.3 |
| 20260510122613 | 15 | 34 | 0.0 | 0.0 | 0.00 | 0.00 | 0.00 | 79 | 1011.4 |
| 20260510122109 | 15 | 35 | 0.0 | 0.0 | 0.00 | 0.00 | 0.00 | 79 | 1011.4 |
| 20260510121606 | 15 | 34 | 0.0 | 0.0 | 0.00 | 0.00 | 0.00 | 78 | 1011.3 |
| 20260510121103 | 15 | 35 | 0.0 | 0.0 | 0.00 | 0.00 | 0.00 | 78 | 1011.2 |
| 20260510120601 | 15 | 33 | 0.0 | 0.0 | 0.00 | 0.00 | 0.00 | 79 | 1011.2 |
| 20260510120056 | 15 | 35 | 0.0 | 0.0 | 0.00 | 0.00 | 0.00 | 79 | 1011.3 |
| 20260510115553 | 15 | 32 | 0.0 | 0.0 | 0.00 | 0.00 | 0.00 | 79 | 1011.2 |
| 20260510115050 | 15 | 32 | 0.0 | 0.0 | 0.00 | 0.00 | 0.00 | 79 | 1011.1 |
| 20260510114546 | 15 | 32 | 0.0 | 0.0 | 0.00 | 0.00 | 0.00 | 79 | 1011.2 |
| 20260510114042 | 15 | 37 | 0.0 | 0.0 | 0.00 | 0.00 | 0.00 | 79 | 1011.1 |
| 20260510113537 | 15 | 37 | 0.0 | 0.0 | 0.00 | 0.00 | 0.00 | 79 | 1011.0 |
| 20260510113035 | 15 | 37 | 0.0 | 0.0 | 0.00 | 0.00 | 0.00 | 79 | 1011.1 |
| 20260510112532 | 15 | 37 | 0.0 | 0.0 | 0.00 | 0.00 | 0.00 | 79 | 1011.1 |
| 20260510112028 | 15 | 37 | 0.0 | 0.0 | 0.00 | 0.00 | 0.00 | 79 | 1011.1 |
| 20260510111525 | 16 | 37 | 0.0 | 0.0 | 0.00 | 0.00 | 0.00 | 79 | 1010.9 |
| 20260510111021 | 16 | 37 | 0.0 | 0.0 | 0.00 | 0.00 | 0.00 | 79 | 1011.1 |
| 20260510110517 | 16 | 37 | 0.0 | 0.0 | 0.00 | 0.00 | 0.00 | 79 | 1011.2 |
| 20260510110014 | 16 | 37 | 0.0 | 0.0 | 0.00 | 0.00 | 0.00 | 78 | 1010.9 |
| 20260510105509 | 16 | 37 | 0.0 | 0.0 | 0.00 | 0.00 | 0.00 | 78 | 1011.1 |
| 20260510105004 | 16 | 37 | 0.0 | 0.0 | 0.00 | 0.00 | 0.00 | 78 | 1010.9 |
| 20260510104501 | 16 | 37 | 0.0 | 0.0 | 0.00 | 0.00 | 0.00 | 78 | 1011.1 |
| 20260510103957 | 16 | 43 | 0.0 | 0.0 | 0.00 | 0.00 | 0.00 | 78 | 1011.0 |
| 20260510103454 | 16 | 30 | 0.0 | 1.6 | 0.00 | 0.00 | 0.00 | 78 | 1011.0 |
| 20260510102950 | 16 | 30 | 0.0 | 0.0 | 0.00 | 0.00 | 0.00 | 78 | 1010.9 |
| 20260510102446 | 16 | 30 | 0.0 | 0.0 | 0.00 | 0.00 | 0.00 | 77 | 1010.9 |
| 20260510101943 | 16 | 30 | 0.0 | 0.0 | 0.00 | 0.00 | 0.00 | 77 | 1010.8 |
| 20260510101441 | 17 | 35 | 0.0 | 0.0 | 0.00 | 0.00 | 0.00 | 77 | 1010.8 |
| 20260510100939 | 17 | 343 | 0.0 | 0.0 | 0.00 | 0.00 | 0.00 | 76 | 1010.9 |
| 20260510100435 | 17 | 342 | 0.0 | 1.6 | 0.00 | 0.00 | 0.00 | 75 | 1010.8 |
| 20260510095931 | 17 | 314 | 0.0 | 0.0 | 0.00 | 0.00 | 0.00 | 74 | 1011.1 |
| 20260510095427 | 17 | 291 | 0.0 | 1.6 | 0.00 | 0.00 | 0.00 | 73 | 1010.8 |
| 20260510094926 | 17 | 284 | 1.6 | 3.2 | 0.00 | 0.00 | 0.00 | 73 | 1010.9 |
| 20260510094421 | 17 | 278 | 3.2 | 3.2 | 0.00 | 0.00 | 0.00 | 74 | 1010.8 |
| 20260510093917 | 17 | 259 | 1.6 | 1.6 | 0.00 | 0.00 | 0.00 | 74 | 1011.0 |
| 20260510093413 | 17 | 270 | 0.0 | 0.0 | 0.00 | 0.00 | 0.00 | 73 | 1011.0 |
| 20260510092910 | 17 | 206 | 0.0 | 0.0 | 0.00 | 0.00 | 0.00 | 73 | 1010.9 |
| 20260510092407 | 17 | 351 | 0.0 | 0.0 | 0.00 | 0.00 | 0.00 | 72 | 1011.0 |
| 20260510091907 | 18 | 330 | 0.0 | 0.0 | 0.00 | 0.00 | 0.00 | 72 | 1010.8 |
| 20260510091404 | 18 | 33 | 0.0 | 0.0 | 0.00 | 0.00 | 0.00 | 71 | 1011.0 |
| 20260510090900 | 18 | 35 | 0.0 | 0.0 | 0.00 | 0.00 | 0.00 | 71 | 1011.0 |
| 20260510090357 | 18 | 28 | 0.0 | 0.0 | 0.00 | 0.00 | 0.00 | 71 | 1011.1 |
| 20260510085853 | 18 | 39 | 0.0 | 1.6 | 0.00 | 0.00 | 0.00 | 71 | 1011.2 |
| 20260510085348 | 18 | 192 | 0.0 | 0.0 | 0.00 | 0.00 | 0.00 | 71 | 1011.0 |
| 20260510084844 | 18 | 193 | 0.0 | 0.0 | 0.00 | 0.00 | 0.00 | 70 | 1011.1 |
| 20260510084341 | 18 | 35 | 0.0 | 0.0 | 0.00 | 0.00 | 0.00 | 70 | 1011.0 |
| 20260510083838 | 18 | 0 | 0.0 | 0.0 | 0.00 | 0.00 | 0.00 | 70 | 1011.1 |
| 20260510083334 | 19 | 336 | 0.0 | 0.0 | 0.00 | 0.00 | 0.00 | 70 | 1011.0 |
| 20260510082830 | 19 | 35 | 0.0 | 0.0 | 0.00 | 0.00 | 0.00 | 69 | 1011.0 |
| 20260510082327 | 20 | 82 | 0.0 | 0.0 | 0.00 | 0.00 | 0.00 | 68 | 1010.8 |
| 20260510081826 | 20 | 263 | 0.0 | 1.6 | 0.00 | 0.00 | 0.00 | 68 | 1010.9 |
| 20260510081322 | 20 | 299 | 0.0 | 1.6 | 0.00 | 0.00 | 0.00 | 67 | 1010.8 |
| 20260510080819 | 20 | 217 | 3.2 | 3.2 | 0.00 | 0.00 | 0.00 | 67 | 1010.9 |
| 20260510080313 | 20 | 237 | 1.6 | 1.6 | 0.00 | 0.00 | 0.00 | 66 | 1011.0 |
| 20260510075811 | 20 | 249 | 1.6 | 1.6 | 0.00 | 0.00 | 0.00 | 66 | 1010.9 |
| 20260510075308 | 20 | 264 | 1.6 | 1.6 | 0.00 | 0.00 | 0.00 | 65 | 1010.9 |
| 20260510074805 | 20 | 259 | 3.2 | 3.2 | 0.00 | 0.00 | 0.00 | 65 | 1011.2 |
| 20260510074302 | 20 | 257 | 1.6 | 1.6 | 0.00 | 0.00 | 0.00 | 64 | 1010.9 |
| 20260510073758 | 21 | 259 | 1.6 | 3.2 | 0.00 | 0.00 | 0.00 | 63 | 1011.1 |
| 20260510073254 | 21 | 254 | 3.2 | 3.2 | 0.00 | 0.00 | 0.00 | 63 | 1010.9 |
| 20260510072749 | 21 | 270 | 1.6 | 3.2 | 0.00 | 0.00 | 0.00 | 63 | 1011.0 |
| 20260510072246 | 21 | 232 | 4.8 | 6.4 | 0.00 | 0.00 | 0.00 | 63 | 1010.9 |
| 20260510071743 | 21 | 268 | 3.2 | 3.2 | 0.00 | 0.00 | 0.00 | 64 | 1011.2 |
| 20260510071239 | 21 | 273 | 0.0 | 1.6 | 0.00 | 0.00 | 0.00 | 63 | 1011.2 |
| 20260510070738 | 21 | 236 | 1.6 | 1.6 | 0.00 | 0.00 | 0.00 | 63 | 1011.1 |
| 20260510070235 | 21 | 262 | 1.6 | 1.6 | 0.00 | 0.00 | 0.00 | 62 | 1011.0 |
| 20260510065729 | 21 | 254 | 3.2 | 3.2 | 0.00 | 0.00 | 0.00 | 62 | 1010.9 |
| 20260510065226 | 21 | 257 | 3.2 | 3.2 | 0.00 | 0.00 | 0.00 | 62 | 1010.9 |
| 20260510064723 | 21 | 263 | 1.6 | 1.6 | 0.00 | 0.00 | 0.00 | 61 | 1010.9 |
| 20260510064221 | 21 | 240 | 3.2 | 3.2 | 0.00 | 0.00 | 0.00 | 61 | 1010.9 |
| 20260510063717 | 21 | 266 | 3.2 | 3.2 | 0.00 | 0.00 | 0.00 | 61 | 1010.9 |
| 20260510063213 | 21 | 226 | 1.6 | 1.6 | 0.00 | 0.00 | 0.00 | 62 | 1011.0 |
| 20260510062710 | 21 | 238 | 1.6 | 1.6 | 0.00 | 0.00 | 0.00 | 61 | 1010.8 |
| 20260510062206 | 21 | 237 | 0.0 | 0.0 | 0.00 | 0.00 | 0.00 | 61 | 1010.6 |
| 20260510061701 | 21 | 251 | 1.6 | 1.6 | 0.00 | 0.00 | 0.00 | 61 | 1010.8 |
| 20260510061159 | 21 | 250 | 3.2 | 3.2 | 0.00 | 0.00 | 0.00 | 60 | 1010.6 |
| 20260510060655 | 21 | 254 | 1.6 | 1.6 | 0.00 | 0.00 | 0.00 | 60 | 1010.9 |
| 20260510060152 | 21 | 235 | 1.6 | 3.2 | 0.00 | 0.00 | 0.00 | 60 | 1011.0 |
| 20260510055648 | 22 | 247 | 0.0 | 0.0 | 0.00 | 0.00 | 0.00 | 59 | 1011.0 |
| 20260510055146 | 22 | 240 | 1.6 | 3.2 | 0.00 | 0.00 | 0.00 | 59 | 1010.9 |
| 20260510054641 | 22 | 284 | 0.0 | 1.6 | 0.00 | 0.00 | 0.00 | 58 | 1010.9 |
| 20260510054137 | 22 | 263 | 1.6 | 3.2 | 0.00 | 0.00 | 0.00 | 58 | 1010.9 |
| 20260510053636 | 22 | 258 | 1.6 | 1.6 | 0.00 | 0.00 | 0.00 | 58 | 1010.8 |
| 20260510053133 | 22 | 245 | 1.6 | 3.2 | 0.00 | 0.00 | 0.00 | 58 | 1010.8 |
| 20260510052629 | 22 | 260 | 0.0 | 0.0 | 0.00 | 0.00 | 0.00 | 58 | 1011.0 |
| 20260510052126 | 22 | 265 | 1.6 | 1.6 | 0.00 | 0.00 | 0.00 | 57 | 1011.0 |
| 20260510051621 | 22 | 298 | 0.0 | 0.0 | 0.00 | 0.00 | 0.00 | 56 | 1010.9 |
| 20260510051118 | 22 | 291 | 0.0 | 0.0 | 0.00 | 0.00 | 0.00 | 56 | 1010.9 |
| 20260510050615 | 22 | 313 | 0.0 | 0.0 | 0.00 | 0.00 | 0.00 | 56 | 1010.8 |
| 20260510050113 | 22 | 41 | 0.0 | 0.0 | 0.00 | 0.00 | 0.00 | 56 | 1010.8 |
| 20260510045609 | 22 | 80 | 0.0 | 0.0 | 0.00 | 0.00 | 0.00 | 56 | 1010.8 |
| 20260510045105 | 22 | 80 | 0.0 | 0.0 | 0.00 | 0.00 | 0.00 | 55 | 1010.8 |
| 20260510044602 | 22 | 81 | 0.0 | 0.0 | 0.00 | 0.00 | 0.00 | 55 | 1010.4 |
| 20260510044059 | 22 | 124 | 0.0 | 0.0 | 0.00 | 0.00 | 0.00 | 54 | 1010.4 |
| 20260510043555 | 23 | 124 | 0.0 | 0.0 | 0.00 | 0.00 | 0.00 | 54 | 1010.4 |
| 20260510043051 | 23 | 37 | 0.0 | 0.0 | 0.00 | 0.00 | 0.00 | 53 | 1010.3 |
| 20260510042545 | 23 | 237 | 0.0 | 1.6 | 0.00 | 0.00 | 0.00 | 53 | 1010.2 |
| 20260510042040 | 23 | 243 | 1.6 | 1.6 | 0.00 | 0.00 | 0.00 | 52 | 1010.3 |
| 20260510041537 | 23 | 227 | 1.6 | 1.6 | 0.00 | 0.00 | 0.00 | 52 | 1010.2 |
| 20260510041034 | 23 | 242 | 0.0 | 1.6 | 0.00 | 0.00 | 0.00 | 52 | 1010.1 |
| 20260510040050 | 24 | 250 | 3.2 | 3.2 | 0.00 | 0.00 | 0.00 | 50 | 1010.2 |
| 20260510035546 | 24 | 250 | 3.2 | 3.2 | 0.00 | 0.00 | 0.00 | 50 | 1010.2 |
| 20260510035046 | 24 | 235 | 1.6 | 1.6 | 0.00 | 0.00 | 0.00 | 50 | 1010.1 |
| 20260510034544 | 25 | 246 | 0.0 | 0.0 | 0.00 | 0.00 | 0.00 | 49 | 1009.8 |
| 20260510034041 | 25 | 246 | 0.0 | 0.0 | 0.00 | 0.00 | 0.00 | 49 | 1009.8 |
| 20260510033537 | 25 | 243 | 0.0 | 0.0 | 0.00 | 0.00 | 0.00 | 48 | 1009.9 |
| 20260510033035 | 25 | 247 | 0.0 | 1.6 | 0.00 | 0.00 | 0.00 | 49 | 1009.9 |
| 20260510032531 | 25 | 247 | 3.2 | 3.2 | 0.00 | 0.00 | 0.00 | 49 | 1009.8 |
| 20260510032027 | 25 | 246 | 3.2 | 3.2 | 0.00 | 0.00 | 0.00 | 49 | 1009.5 |
| 20260510031522 | 25 | 277 | 0.0 | 1.6 | 0.00 | 0.00 | 0.00 | 49 | 1009.8 |
| 20260510031018 | 25 | 312 | 0.0 | 0.0 | 0.00 | 0.00 | 0.00 | 49 | 1009.7 |
| 20260510030514 | 26 | 343 | 0.0 | 1.6 | 0.00 | 0.00 | 0.00 | 49 | 1009.5 |
| 20260510030011 | 26 | 345 | 0.0 | 0.0 | 0.00 | 0.00 | 0.00 | 47 | 1009.5 |
| 20260510025508 | 26 | 345 | 0.0 | 0.0 | 0.00 | 0.00 | 0.00 | 47 | 1009.4 |
| 20260510025006 | 27 | 345 | 0.0 | 0.0 | 0.00 | 0.00 | 0.00 | 47 | 1009.5 |
| 20260510024503 | 27 | 356 | 0.0 | 0.0 | 0.00 | 0.00 | 0.00 | 46 | 1009.4 |
| 20260510023958 | 27 | 1 | 0.0 | 0.0 | 0.00 | 0.00 | 0.00 | 45 | 1009.6 |
| 20260510023454 | 28 | 355 | 0.0 | 0.0 | 0.00 | 0.00 | 0.00 | 44 | 1009.4 |
| 20260510022952 | 28 | 333 | 0.0 | 0.0 | 0.00 | 0.00 | 0.00 | 42 | 1009.4 |
| 20260510022451 | 28 | 259 | 0.0 | 0.0 | 0.00 | 0.00 | 0.00 | 40 | 1009.3 |
| 20260510021950 | 29 | 254 | 1.6 | 1.6 | 0.00 | 0.00 | 0.00 | 39 | 1009.4 |
| 20260510021448 | 29 | 255 | 1.6 | 1.6 | 0.00 | 0.00 | 0.00 | 39 | 1009.2 |
| 20260510020944 | 30 | 285 | 4.8 | 6.4 | 0.00 | 0.00 | 0.00 | 37 | 1009.1 |
| 20260510020439 | 30 | 293 | 4.8 | 8.0 | 0.00 | 0.00 | 0.00 | 37 | 1009.2 |
| 20260510015935 | 30 | 267 | 3.2 | 3.2 | 0.00 | 0.00 | 0.00 | 35 | 1009.2 |
| 20260510015431 | 30 | 231 | 4.8 | 6.4 | 0.00 | 0.00 | 0.00 | 35 | 1009.2 |
| 20260510014926 | 30 | 258 | 8.0 | 8.0 | 0.00 | 0.00 | 0.00 | 34 | 1009.4 |
| 20260510014424 | 30 | 269 | 6.4 | 8.0 | 0.00 | 0.00 | 0.00 | 34 | 1009.2 |
| 20260510013920 | 30 | 256 | 6.4 | 8.0 | 0.00 | 0.00 | 0.00 | 33 | 1009.3 |
| 20260510013415 | 31 | 252 | 1.6 | 3.2 | 0.00 | 0.00 | 0.00 | 33 | 1009.3 |
| 20260510012910 | 31 | 264 | 3.2 | 3.2 | 0.00 | 0.00 | 0.00 | 32 | 1009.1 |
| 20260510012406 | 31 | 264 | 8.0 | 9.7 | 0.00 | 0.00 | 0.00 | 31 | 1009.3 |
| 20260510011900 | 31 | 249 | 4.8 | 6.4 | 0.00 | 0.00 | 0.00 | 32 | 1009.3 |
| 20260510011356 | 31 | 242 | 3.2 | 3.2 | 0.00 | 0.00 | 0.00 | 29 | 1009.4 |
| 20260510010852 | 31 | 271 | 0.0 | 1.6 | 0.00 | 0.00 | 0.00 | 31 | 1009.5 |
| 20260510010350 | 31 | 267 | 4.8 | 6.4 | 0.00 | 0.00 | 0.00 | 32 | 1009.4 |
| 20260510005846 | 31 | 257 | 3.2 | 3.2 | 0.00 | 0.00 | 0.00 | 34 | 1009.3 |
| 20260510005343 | 31 | 249 | 8.0 | 11.3 | 0.00 | 0.00 | 0.00 | 33 | 1009.1 |
| 20260510004840 | 31 | 290 | 8.0 | 9.7 | 0.00 | 0.00 | 0.00 | 32 | 1009.6 |
| 20260510004337 | 31 | 277 | 1.6 | 1.6 | 0.00 | 0.00 | 0.00 | 35 | 1009.5 |
| 20260510003835 | 31 | 243 | 4.8 | 6.4 | 0.00 | 0.00 | 0.00 | 35 | 1009.4 |
| 20260510003332 | 31 | 16 | 1.6 | 1.6 | 0.00 | 0.00 | 0.00 | 33 | 1009.4 |
| 20260510002830 | 31 | 286 | 1.6 | 1.6 | 0.00 | 0.00 | 0.00 | 35 | 1009.7 |
| 20260510002328 | 31 | 262 | 8.0 | 9.7 | 0.00 | 0.00 | 0.00 | 34 | 1009.5 |
| 20260510001825 | 31 | 29 | 4.8 | 6.4 | 0.00 | 0.00 | 0.00 | 32 | 1009.6 |
| 20260510001323 | 31 | 249 | 3.2 | 3.2 | 0.00 | 0.00 | 0.00 | 33 | 1009.7 |
| 20260510000818 | 31 | 237 | 4.8 | 6.4 | 0.00 | 0.00 | 0.00 | 32 | 1009.5 |
| 20260510000318 | 31 | 242 | 3.2 | 3.2 | 0.00 | 0.00 | 0.00 | 32 | 1009.5 |
| 20260509235813 | 31 | 281 | 1.6 | 3.2 | 0.00 | 0.00 | 0.00 | 32 | 1009.6 |
| 20260509235309 | 31 | 261 | 8.0 | 8.0 | 0.00 | 0.00 | 0.00 | 30 | 1009.9 |
| 20260509234805 | 31 | 255 | 3.2 | 6.4 | 0.00 | 0.00 | 0.00 | 30 | 1009.8 |
| 20260509234302 | 31 | 349 | 0.0 | 1.6 | 0.00 | 0.00 | 0.00 | 31 | 1009.5 |
| 20260509233800 | 31 | 237 | 6.4 | 9.7 | 0.00 | 0.00 | 0.00 | 32 | 1009.7 |
| 20260509233258 | 31 | 281 | 3.2 | 3.2 | 0.00 | 0.00 | 0.00 | 34 | 1009.9 |
| 20260509232753 | 31 | 209 | 3.2 | 3.2 | 0.00 | 0.00 | 0.00 | 32 | 1009.8 |
| 20260509232251 | 32 | 275 | 6.4 | 8.0 | 0.00 | 0.00 | 0.00 | 31 | 1009.9 |
| 20260509231747 | 31 | 227 | 1.6 | 1.6 | 0.00 | 0.00 | 0.00 | 32 | 1009.9 |
| 20260509231244 | 31 | 254 | 1.6 | 1.6 | 0.00 | 0.00 | 0.00 | 32 | 1010.0 |
| 20260509230742 | 31 | 235 | 6.4 | 8.0 | 0.00 | 0.00 | 0.00 | 33 | 1010.0 |
| 20260509230239 | 31 | 248 | 6.4 | 8.0 | 0.00 | 0.00 | 0.00 | 33 | 1010.0 |
| 20260509225734 | 31 | 260 | 6.4 | 8.0 | 0.00 | 0.00 | 0.00 | 29 | 1010.2 |
| 20260509225230 | 31 | 290 | 3.2 | 3.2 | 0.00 | 0.00 | 0.00 | 29 | 1010.2 |
| 20260509224726 | 31 | 261 | 4.8 | 6.4 | 0.00 | 0.00 | 0.00 | 30 | 1010.2 |
| 20260509224223 | 31 | 247 | 3.2 | 3.2 | 0.00 | 0.00 | 0.00 | 32 | 1010.2 |
| 20260509223720 | 30 | 314 | 4.8 | 6.4 | 0.00 | 0.00 | 0.00 | 33 | 1010.4 |
| 20260509223217 | 31 | 271 | 4.8 | 6.4 | 0.00 | 0.00 | 0.00 | 33 | 1010.6 |
| 20260509222714 | 30 | 263 | 3.2 | 3.2 | 0.00 | 0.00 | 0.00 | 34 | 1010.6 |
| 20260509222209 | 30 | 255 | 3.2 | 3.2 | 0.00 | 0.00 | 0.00 | 34 | 1010.8 |
| 20260509221705 | 31 | 237 | 4.8 | 8.0 | 0.00 | 0.00 | 0.00 | 36 | 1010.8 |
| 20260509221201 | 30 | 247 | 4.8 | 8.0 | 0.00 | 0.00 | 0.00 | 34 | 1010.9 |
| 20260509220657 | 30 | 271 | 3.2 | 3.2 | 0.00 | 0.00 | 0.00 | 36 | 1010.9 |
| 20260509220154 | 30 | 269 | 4.8 | 6.4 | 0.00 | 0.00 | 0.00 | 37 | 1011.0 |
| 20260509215650 | 30 | 257 | 6.4 | 8.0 | 0.00 | 0.00 | 0.00 | 36 | 1011.2 |
| 20260509215147 | 30 | 75 | 4.8 | 8.0 | 0.00 | 0.00 | 0.00 | 36 | 1011.2 |
| 20260509214643 | 30 | 267 | 1.6 | 1.6 | 0.00 | 0.00 | 0.00 | 37 | 1011.2 |
| 20260509214140 | 30 | 242 | 1.6 | 3.2 | 0.00 | 0.00 | 0.00 | 36 | 1011.3 |
| 20260509213637 | 30 | 47 | 1.6 | 1.6 | 0.00 | 0.00 | 0.00 | 37 | 1011.1 |
| 20260509213133 | 30 | 253 | 6.4 | 8.0 | 0.00 | 0.00 | 0.00 | 37 | 1011.3 |
| 20260509212631 | 29 | 328 | 4.8 | 6.4 | 0.00 | 0.00 | 0.00 | 40 | 1011.6 |
| 20260509212127 | 28 | 274 | 8.0 | 9.7 | 0.00 | 0.00 | 0.00 | 40 | 1011.5 |
| 20260509211623 | 28 | 234 | 4.8 | 6.4 | 0.00 | 0.00 | 0.00 | 42 | 1011.5 |
| 20260509211120 | 28 | 223 | 6.4 | 8.0 | 0.00 | 0.00 | 0.00 | 40 | 1011.6 |
| 20260509210617 | 29 | 250 | 3.2 | 3.2 | 0.00 | 0.00 | 0.00 | 41 | 1011.8 |
| 20260509210114 | 28 | 215 | 0.0 | 1.6 | 0.00 | 0.00 | 0.00 | 42 | 1011.8 |
| 20260509205608 | 28 | 261 | 4.8 | 6.4 | 0.00 | 0.00 | 0.00 | 42 | 1011.8 |
| 20260509205103 | 28 | 228 | 3.2 | 6.4 | 0.00 | 0.00 | 0.00 | 42 | 1011.8 |
| 20260509204600 | 28 | 309 | 1.6 | 1.6 | 0.00 | 0.00 | 0.00 | 41 | 1012.0 |
| 20260509204056 | 28 | 284 | 3.2 | 6.4 | 0.00 | 0.00 | 0.00 | 40 | 1011.8 |
| 20260509203552 | 28 | 248 | 1.6 | 3.2 | 0.00 | 0.00 | 0.00 | 42 | 1011.8 |
| 20260509203051 | 28 | 259 | 4.8 | 6.4 | 0.00 | 0.00 | 0.00 | 40 | 1012.0 |
| 20260509202545 | 28 | 15 | 1.6 | 1.6 | 0.00 | 0.00 | 0.00 | 42 | 1012.1 |
| 20260509202041 | 28 | 303 | 3.2 | 3.2 | 0.00 | 0.00 | 0.00 | 42 | 1012.2 |
| 20260509201536 | 28 | 277 | 6.4 | 8.0 | 0.00 | 0.00 | 0.00 | 41 | 1012.1 |
| 20260509201034 | 28 | 252 | 8.0 | 8.0 | 0.00 | 0.00 | 0.00 | 41 | 1012.2 |
| 20260509200527 | 27 | 237 | 4.8 | 6.4 | 0.00 | 0.00 | 0.00 | 42 | 1012.1 |
| 20260509200024 | 27 | 216 | 0.0 | 1.6 | 0.00 | 0.00 | 0.00 | 43 | 1012.2 |
| 20260509195520 | 27 | 275 | 1.6 | 1.6 | 0.00 | 0.00 | 0.00 | 43 | 1012.3 |
| 20260509195020 | 27 | 2 | 1.6 | 3.2 | 0.00 | 0.00 | 0.00 | 43 | 1012.3 |
| 20260509194515 | 26 | 255 | 3.2 | 3.2 | 0.00 | 0.00 | 0.00 | 45 | 1012.4 |
| 20260509194013 | 27 | 235 | 3.2 | 6.4 | 0.00 | 0.00 | 0.00 | 44 | 1012.4 |
| 20260509193513 | 27 | 223 | 3.2 | 3.2 | 0.00 | 0.00 | 0.00 | 44 | 1012.6 |
| 20260509193010 | 27 | 76 | 0.0 | 0.0 | 0.00 | 0.00 | 0.00 | 43 | 1012.6 |
| 20260509192506 | 27 | 247 | 3.2 | 3.2 | 0.00 | 0.00 | 0.00 | 42 | 1012.7 |
| 20260509192001 | 26 | 47 | 3.2 | 3.2 | 0.00 | 0.00 | 0.00 | 43 | 1012.6 |
| 20260509191456 | 26 | 336 | 1.6 | 1.6 | 0.00 | 0.00 | 0.00 | 44 | 1012.7 |
| 20260509190952 | 26 | 230 | 1.6 | 1.6 | 0.00 | 0.00 | 0.00 | 45 | 1012.8 |
| 20260509190449 | 26 | 253 | 4.8 | 8.0 | 0.00 | 0.00 | 0.00 | 45 | 1012.9 |
| 20260509185947 | 26 | 266 | 3.2 | 6.4 | 0.00 | 0.00 | 0.00 | 45 | 1013.0 |
| 20260509185444 | 25 | 12 | 1.6 | 1.6 | 0.00 | 0.00 | 0.00 | 47 | 1012.9 |
| 20260509184940 | 25 | 306 | 0.0 | 1.6 | 0.00 | 0.00 | 0.00 | 46 | 1013.1 |
| 20260509184439 | 25 | 298 | 1.6 | 6.4 | 0.00 | 0.00 | 0.00 | 47 | 1013.3 |
| 20260509183935 | 25 | 246 | 1.6 | 1.6 | 0.00 | 0.00 | 0.00 | 49 | 1013.1 |
| 20260509183429 | 25 | 340 | 3.2 | 3.2 | 0.00 | 0.00 | 0.00 | 47 | 1013.1 |
| 20260509182926 | 24 | 214 | 1.6 | 1.6 | 0.00 | 0.00 | 0.00 | 48 | 1013.3 |
| 20260509182422 | 25 | 342 | 1.6 | 3.2 | 0.00 | 0.00 | 0.00 | 48 | 1013.3 |
| 20260509181920 | 25 | 0 | 1.6 | 1.6 | 0.00 | 0.00 | 0.00 | 47 | 1013.4 |
| 20260509181418 | 23 | 260 | 3.2 | 6.4 | 0.00 | 0.00 | 0.00 | 49 | 1013.3 |
| 20260509180914 | 23 | 222 | 3.2 | 3.2 | 0.00 | 0.00 | 0.00 | 49 | 1013.2 |
| 20260509180409 | 23 | 261 | 3.2 | 3.2 | 0.00 | 0.00 | 0.00 | 49 | 1013.2 |
| 20260509175907 | 23 | 284 | 1.6 | 1.6 | 0.00 | 0.00 | 0.00 | 49 | 1013.5 |
| 20260509175402 | 24 | 305 | 4.8 | 8.0 | 0.00 | 0.00 | 0.00 | 49 | 1013.2 |
| 20260509174854 | 23 | 60 | 1.6 | 3.2 | 0.00 | 0.00 | 0.00 | 49 | 1013.3 |
| 20260509174350 | 23 | 344 | 1.6 | 1.6 | 0.00 | 0.00 | 0.00 | 50 | 1013.4 |
| 20260509173846 | 23 | 262 | 4.8 | 8.0 | 0.00 | 0.00 | 0.00 | 49 | 1013.5 |
| 20260509173341 | 23 | 263 | 3.2 | 3.2 | 0.00 | 0.00 | 0.00 | 51 | 1013.4 |
| 20260509172837 | 23 | 252 | 3.2 | 3.2 | 0.00 | 0.00 | 0.00 | 51 | 1013.6 |
| 20260509172334 | 22 | 331 | 0.0 | 0.0 | 0.00 | 0.00 | 0.00 | 50 | 1013.5 |
| 20260509171830 | 23 | 257 | 1.6 | 1.6 | 0.00 | 0.00 | 0.00 | 51 | 1013.4 |
| 20260509171326 | 22 | 256 | 3.2 | 6.4 | 0.00 | 0.00 | 0.00 | 52 | 1013.6 |
| 20260509170823 | 22 | 274 | 6.4 | 8.0 | 0.00 | 0.00 | 0.00 | 55 | 1013.6 |
| 20260509170319 | 22 | 241 | 1.6 | 1.6 | 0.00 | 0.00 | 0.00 | 54 | 1013.5 |
| 20260509165818 | 21 | 256 | 6.4 | 8.0 | 0.00 | 0.00 | 0.00 | 54 | 1013.7 |
| 20260509165313 | 22 | 257 | 1.6 | 3.2 | 0.00 | 0.00 | 0.00 | 56 | 1013.8 |
| 20260509164809 | 22 | 260 | 1.6 | 1.6 | 0.00 | 0.00 | 0.00 | 56 | 1013.6 |
| 20260509164306 | 21 | 273 | 0.0 | 1.6 | 0.00 | 0.00 | 0.00 | 56 | 1013.8 |
| 20260509163802 | 21 | 221 | 3.2 | 3.2 | 0.00 | 0.00 | 0.00 | 57 | 1013.8 |
| 20260509163258 | 21 | 266 | 6.4 | 8.0 | 0.00 | 0.00 | 0.00 | 57 | 1013.7 |
| 20260509162758 | 20 | 245 | 4.8 | 8.0 | 0.00 | 0.00 | 0.00 | 59 | 1013.8 |
| 20260509162251 | 20 | 256 | 3.2 | 3.2 | 0.00 | 0.00 | 0.00 | 59 | 1013.6 |
| 20260509161747 | 20 | 231 | 1.6 | 3.2 | 0.00 | 0.00 | 0.00 | 61 | 1013.5 |
| 20260509161243 | 20 | 262 | 3.2 | 6.4 | 0.00 | 0.00 | 0.00 | 62 | 1013.6 |
| 20260509160739 | 20 | 245 | 3.2 | 3.2 | 0.00 | 0.00 | 0.00 | 64 | 1013.8 |
| 20260509160236 | 18 | 267 | 1.6 | 3.2 | 0.00 | 0.00 | 0.00 | 67 | 1013.7 |
| 20260509155731 | 18 | 307 | 0.0 | 0.0 | 0.00 | 0.00 | 0.00 | 68 | 1013.8 |
| 20260509155228 | 18 | 261 | 1.6 | 1.6 | 0.00 | 0.00 | 0.00 | 68 | 1013.7 |
| 20260509154724 | 17 | 305 | 3.2 | 6.4 | 0.00 | 0.00 | 0.00 | 69 | 1014.0 |